Theta_e
320 316 322 330 326 329 334 338 335 337 342 344 346 344 343 344 345 349 348 343 340 337 338 343 343 345 341 338 336 328 326 326 326 326 326 325 328 324 316 313 313 313 314 315 316 317 317 317 316
317 317 324 327 324 327 327 335 338 335 344 343 343 344 343 343 341 334 342 336 338 336 337 340 341 337 334 334 329 325 325 325 325 324 327 326 319 313 313 314 315 316 317 317 318 317 317 315 314
316 322 324 319 324 327 329 332 335 337 342 341 343 343 341 346 340 333 341 334 334 330 332 338 334 332 330 326 324 324 323 323 323 331 322 315 313 314 315 315 316 317 317 318 318 317 315 314 314
317 322 323 322 324 323 329 330 335 338 342 342 342 341 341 345 343 341 341 330 330 328 334 336 332 327 328 326 326 326 324 329 330 321 314 313 314 315 316 316 317 317 318 318 318 317 316 317 317
319 321 315 318 319 320 323 327 335 337 342 343 345 342 341 342 341 340 331 330 328 330 332 329 326 325 326 326 326 324 328 332 321 315 313 314 315 316 317 318 318 319 319 319 319 319 318 319 320
319 316 313 315 315 317 317 329 336 339 343 344 341 342 343 343 340 330 327 327 327 327 327 325 325 325 327 326 325 327 333 326 316 313 314 315 317 318 319 320 320 320 320 320 320 320 321 321 321
316 310 314 314 315 316 318 332 336 339 341 342 343 340 343 343 335 329 328 328 327 327 327 328 329 328 327 327 327 333 330 319 313 314 317 319 320 321 322 322 322 321 321 321 321 321 321 321 322
319 310 314 313 314 316 319 335 339 341 336 342 342 341 342 343 335 332 331 329 327 328 331 335 334 328 337 334 334 332 323 315 313 315 320 322 323 323 323 322 322 322 322 322 322 322 322 322 323
319 313 313 315 316 322 328 334 336 336 337 337 338 341 342 341 339 341 343 330 327 328 334 332 331 333 330 335 334 329 320 313 314 321 323 323 324 324 324 323 323 323 323 323 322 322 322 323 323
315 312 316 315 318 323 329 334 335 338 340 339 342 341 343 342 343 344 339 331 329 333 336 335 333 334 336 337 333 325 315 314 324 326 323 324 325 325 324 324 324 324 324 323 323 323 323 323 322
315 316 315 318 319 322 330 335 337 335 339 340 339 341 344 344 344 342 339 337 334 336 335 334 334 333 328 337 331 323 313 316 327 327 326 326 326 325 325 325 325 324 324 323 322 323 323 322 320
317 318 317 326 331 333 333 336 337 339 341 340 338 341 343 344 342 340 339 338 335 333 332 331 330 326 328 336 330 320 317 324 327 327 327 327 327 326 326 325 325 325 324 324 324 322 321 319 319
316 318 331 336 335 335 336 335 336 338 337 337 339 339 339 338 336 335 335 333 333 336 334 333 333 330 333 331 328 317 320 325 327 328 327 326 328 326 325 324 324 324 323 322 321 321 318 319 319
318 328 335 336 337 337 336 336 335 335 336 335 336 337 337 336 336 336 335 329 334 331 331 332 331 330 330 328 326 316 317 322 328 326 326 326 325 324 323 323 323 322 322 321 320 319 319 318 316
317 315 329 336 329 337 337 337 337 335 334 333 333 333 331 334 332 334 329 329 332 330 331 330 330 330 329 327 324 318 324 326 326 325 324 324 323 323 323 323 322 322 321 320 320 319 319 317 312
317 315 327 334 335 338 337 343 338 333 332 333 333 333 333 332 330 331 332 332 332 333 329 331 329 327 325 326 325 326 325 325 325 325 324 323 322 322 322 323 321 321 321 320 320 318 315 312 308
315 323 327 338 337 337 337 342 336 332 331 330 331 331 332 331 331 330 331 331 330 330 329 330 330 329 328 327 327 326 325 325 325 325 323 323 322 322 321 321 322 322 320 319 316 314 312 311 309
323 327 339 340 336 335 337 337 333 333 331 329 329 328 329 329 330 332 330 330 330 329 329 329 328 326 325 325 326 325 324 322 322 322 321 321 321 321 323 323 322 321 320 317 316 313 311 310 309
324 339 340 338 334 335 335 335 333 332 330 329 327 327 326 328 328 328 329 328 329 328 327 325 322 322 321 321 320 321 321 319 316 316 316 317 316 315 317 320 321 321 318 317 316 313 310 310 309
326 334 335 332 332 334 334 336 332 330 330 330 329 327 325 327 326 327 327 326 326 324 322 321 321 320 316 313 314 314 315 317 314 314 313 313 313 313 314 314 314 315 315 315 317 312 310 309 309
320 320 331 334 333 332 332 335 333 330 328 327 326 326 326 326 326 326 325 325 323 322 319 316 314 313 312 310 310 310 309 310 310 311 312 310 309 310 311 314 314 314 314 315 313 311 310 309 310
322 328 334 335 333 335 329 335 334 330 328 326 324 325 325 325 325 324 323 319 316 316 315 314 313 312 312 310 309 308 310 311 310 309 308 308 308 309 310 311 313 313 312 313 312 310 310 310 310
323 330 333 333 318 326 331 331 336 329 329 327 324 324 325 324 324 320 316 316 315 314 314 313 313 312 311 309 308 308 309 308 308 308 307 307 308 309 310 310 310 312 312 312 311 310 309 310 310
320 319 316 315 314 320 327 330 334 332 331 327 324 323 323 322 317 315 315 314 315 314 313 313 313 313 309 308 307 308 308 307 307 307 306 306 308 308 310 310 309 309 311 311 311 310 310 310 310
318 317 319 320 319 319 328 330 335 330 327 326 324 322 322 319 316 316 315 314 314 314 313 313 312 307 307 307 307 307 307 306 306 306 307 307 308 308 308 308 309 308 308 309 310 310 309 310 310
319 317 319 324 321 321 327 333 332 326 325 324 323 320 318 317 316 316 315 315 315 313 311 307 307 307 308 308 307 307 307 307 306 306 307 307 307 307 308 308 308 308 308 308 309 309 308 309 309
322 322 317 319 318 324 329 331 327 324 323 321 320 318 317 317 317 317 316 315 312 309 307 308 308 308 308 307 306 306 307 306 306 306 306 307 307 307 307 307 307 307 307 308 308 309 309 309 310
322 320 322 318 326 326 329 329 328 327 324 322 320 319 318 318 317 316 315 312 308 307 308 308 308 307 307 306 306 307 307 307 306 305 306 306 307 307 307 307 306 307 308 307 307 309 308 309 309
320 321 319 317 318 322 324 323 325 324 324 324 321 319 318 317 317 315 311 309 308 308 308 307 308 307 307 307 307 307 306 306 305 305 305 306 307 307 307 306 306 307 308 307 307 307 307 308 309
321 322 318 320 323 321 320 320 319 321 322 322 319 318 318 317 313 311 309 309 308 307 306 307 307 307 307 307 307 306 305 305 304 304 303 304 305 305 306 305 306 307 308 307 307 308 308 308 307
Wind_Speed
11 13 6 1 4 5 3 2 2 2 2 2 7 2 7 16 6 3 3 8 10 11 15 13 12 14 15 14 13 12 12 12 13 14 15 15 15 15 15 15 14 14 13 13 13 12 11 11 10
10 7 2 2 5 4 5 3 3 3 6 15 14 8 7 3 12 16 15 12 14 19 19 18 15 12 12 12 12 13 13 13 13 14 15 16 17 17 16 14 13 12 11 10 10 10 11 12 12
7 3 1 4 3 2 4 5 5 1 13 4 5 10 4 6 15 18 14 17 21 21 20 18 16 16 15 13 13 14 14 16 17 17 17 17 18 16 15 13 11 9 9 9 9 10 11 12 14
1 0 4 4 3 6 4 3 4 6 8 5 11 6 8 10 15 17 15 20 21 20 19 18 16 14 13 15 16 15 16 18 17 17 17 17 15 14 12 10 7 6 6 6 6 7 8 11 14
2 2 3 2 5 4 5 6 12 6 6 9 2 3 5 3 10 18 19 20 19 19 18 15 13 13 14 15 15 17 18 16 16 18 19 16 13 11 9 8 7 5 5 5 5 7 9 12 15
0 2 4 1 5 5 6 5 13 10 11 10 10 6 1 8 17 18 19 18 16 16 16 16 15 16 14 15 16 16 16 16 17 17 16 15 14 11 8 5 3 3 3 4 6 9 13 15 17
4 4 2 2 4 6 4 3 9 11 15 6 13 4 7 16 18 18 16 16 15 14 14 14 14 13 14 13 14 14 13 15 17 16 15 13 11 10 8 5 1 1 4 6 9 12 15 17 19
2 4 0 3 2 6 7 4 18 17 5 16 9 7 6 20 19 17 16 16 15 14 14 15 15 16 13 12 12 12 14 15 16 16 14 12 11 9 6 3 2 3 5 7 10 13 15 17 20
4 4 2 4 5 6 3 5 7 10 18 9 2 10 16 26 21 18 18 17 14 14 13 11 12 14 11 10 10 12 13 16 16 15 13 10 9 7 6 5 4 5 8 10 14 15 16 18 21
4 3 6 6 5 3 24 15 6 8 14 13 22 21 24 22 20 20 16 14 10 11 11 9 7 9 9 12 11 12 13 15 14 13 11 11 9 8 8 7 7 9 12 13 13 13 17 21 24
3 4 3 6 6 4 13 28 15 3 9 8 19 22 23 21 18 11 10 5 7 11 11 12 8 12 17 11 12 15 16 15 15 13 12 11 10 10 11 10 11 13 13 12 13 14 18 22 26
1 7 6 15 19 11 9 14 28 28 14 18 18 20 22 18 15 12 7 7 5 3 6 11 11 6 12 12 13 13 13 14 13 13 14 13 12 10 10 12 14 14 12 13 15 19 24 24 24
3 9 21 26 45 41 42 31 18 24 25 22 21 19 16 14 12 8 3 0 5 7 5 7 5 7 10 12 12 13 14 13 12 11 13 13 11 10 11 13 13 12 14 16 20 23 21 22 25
6 26 22 28 32 26 33 27 9 19 23 22 18 14 8 7 7 8 7 11 12 11 12 10 7 6 7 11 12 14 15 13 10 10 10 10 11 11 10 10 10 11 15 19 19 18 19 21 23
3 8 9 24 1 4 19 23 15 17 21 20 17 15 14 11 7 13 12 11 11 12 11 13 13 10 6 8 12 14 14 15 13 12 10 8 8 9 9 11 16 19 17 17 15 16 18 20 20
7 6 5 13 9 12 10 10 18 19 19 18 14 13 12 7 8 10 9 7 7 1 7 7 6 4 7 6 5 6 7 7 10 9 10 9 11 13 17 18 21 22 17 14 15 16 18 18 17
9 4 7 6 24 3 8 11 17 20 22 18 16 16 13 9 8 4 3 3 2 4 8 12 13 11 7 5 5 5 7 10 12 14 17 18 18 17 18 12 15 15 14 12 10 13 15 16 13
2 7 8 7 9 23 21 17 17 19 21 15 15 15 16 14 10 4 2 3 2 7 11 15 13 13 15 14 14 15 15 14 11 11 10 10 12 10 13 13 13 15 11 13 13 13 14 11 11
8 11 13 7 3 12 13 14 12 15 19 15 13 13 14 12 7 4 1 5 7 8 11 13 14 15 15 14 13 13 13 15 16 15 17 17 15 14 16 15 15 16 12 13 12 13 13 11 10
11 14 4 6 10 8 12 12 9 10 11 13 12 11 8 7 5 4 5 7 9 11 13 13 14 14 16 19 19 17 16 16 13 14 16 16 15 13 12 14 14 18 16 13 12 13 16 12 8
3 6 5 7 10 10 13 6 4 5 9 9 10 7 5 3 3 2 4 7 9 10 12 14 15 18 20 20 22 24 21 19 19 17 16 18 20 20 16 14 13 10 10 11 13 15 12 12 7
5 7 13 21 5 5 2 3 5 5 2 4 5 4 2 1 1 2 4 6 8 10 11 14 16 17 17 19 24 22 19 20 17 18 20 21 22 20 17 14 13 9 11 10 8 10 12 11 9
3 14 14 7 3 5 2 4 5 8 5 4 1 3 4 3 0 1 3 4 7 9 11 16 16 18 20 23 20 18 17 16 18 17 17 19 18 16 16 16 15 13 12 10 9 8 9 10 11
4 5 3 3 3 2 2 4 5 5 5 7 7 7 6 4 4 1 5 7 7 9 12 14 16 18 21 19 20 18 19 20 21 22 22 21 19 18 16 15 16 16 14 17 16 13 10 9 12
8 6 3 3 4 2 4 3 0 4 7 10 13 13 9 7 5 2 7 8 8 11 13 13 14 16 14 16 15 18 18 19 21 22 23 19 16 17 16 14 12 13 13 15 16 19 12 12 13
3 4 4 3 2 2 5 2 3 4 3 6 6 7 7 7 3 4 9 9 10 10 10 12 10 13 15 15 17 17 16 18 20 20 18 15 14 15 13 12 12 12 10 16 15 11 13 12 13
5 4 2 5 1 3 1 2 4 3 2 3 5 5 6 4 3 6 9 9 8 9 10 10 13 16 16 16 19 17 16 18 19 20 18 16 14 14 11 12 13 12 10 12 9 14 14 11 10
6 1 4 4 3 3 3 4 3 6 6 3 5 7 6 4 6 6 5 6 7 9 11 14 17 17 17 20 19 18 19 19 19 20 17 13 13 11 10 12 13 11 9 12 9 13 9 9 8
6 4 5 4 3 2 0 4 6 5 4 7 7 4 4 4 4 2 3 8 9 11 14 16 17 18 18 19 17 18 17 16 16 17 16 15 12 11 12 13 12 10 8 10 9 6 6 5 4
4 2 3 4 4 2 3 4 4 5 5 4 4 4 2 2 3 2 6 8 12 16 16 17 17 18 18 17 17 15 15 16 16 15 14 14 14 11 9 9 10 8 6 6 4 4 1 1 1
Wind_Direction
355 348 344 91 50 61 295 315 253 246 332 327 100 144 117 54 101 86 114 154 176 177 156 153 156 161 169 169 164 156 150 149 146 141 137 131 127 120 117 115 112 106 98 90 80 70 59 51 41
344 337 339 81 78 39 293 228 233 198 111 99 86 92 58 78 127 142 167 173 170 179 167 162 160 165 169 166 164 160 158 152 148 142 136 132 129 128 124 117 107 98 91 85 78 69 57 43 31
346 331 320 89 106 174 231 217 198 189 146 27 78 71 82 125 156 150 164 171 166 174 171 167 171 172 176 178 173 168 161 157 150 144 139 136 132 127 120 115 110 102 91 77 67 55 46 40 35
296 340 51 80 243 249 217 219 179 136 123 31 106 63 71 115 149 166 162 170 175 172 165 167 172 171 168 163 162 160 156 152 145 136 136 133 128 123 119 116 112 105 85 70 59 47 33 26 22
7 70 51 26 273 265 246 257 158 93 119 78 58 75 69 106 150 156 161 168 178 165 162 164 166 166 168 166 163 160 156 154 148 145 143 135 127 125 124 121 112 96 79 59 35 14 6 3 1
92 92 59 240 260 264 273 220 146 110 105 111 97 88 52 146 153 155 161 167 172 165 165 169 168 167 169 166 164 160 158 154 151 148 143 142 143 141 137 131 114 78 58 34 2 350 345 341 341
125 85 213 253 276 305 262 89 117 119 124 102 145 78 160 159 155 158 159 163 166 165 165 167 165 161 160 166 163 161 159 153 153 149 145 144 144 143 145 140 108 19 10 358 343 337 337 334 336
157 94 99 254 250 279 334 37 123 120 99 121 134 178 181 163 159 160 162 167 165 166 169 165 160 155 157 160 168 169 165 164 162 160 159 158 154 152 151 172 246 317 329 324 320 326 325 327 330
172 57 281 232 172 275 106 68 33 85 109 76 72 139 165 160 163 161 162 167 168 170 174 168 165 157 157 164 184 180 176 172 170 171 172 171 169 180 198 221 261 291 300 303 310 313 316 320 323
103 101 235 209 153 308 56 65 19 74 70 69 87 124 148 159 168 169 165 159 162 163 164 157 169 160 204 180 199 188 183 175 175 185 190 192 196 216 233 251 270 274 279 272 278 295 311 316 316
162 199 221 327 233 6 103 48 35 62 39 84 124 127 154 168 170 169 154 135 170 176 170 166 186 209 241 212 206 199 191 189 195 204 212 223 225 226 242 249 259 262 268 268 288 304 310 309 313
287 262 325 354 54 63 62 78 62 60 77 104 112 134 156 161 160 164 152 194 202 226 227 201 203 168 212 225 216 210 200 202 215 227 229 239 246 241 244 251 262 269 270 287 304 312 315 317 320
193 45 71 83 76 81 81 71 76 65 82 102 107 128 133 131 112 108 95 203 120 87 119 94 193 297 220 230 222 218 216 225 235 253 245 241 235 245 252 262 274 279 290 298 304 307 310 313 318
19 89 88 73 88 94 84 61 79 59 89 85 101 107 110 94 87 62 83 90 85 69 50 30 19 3 256 245 244 227 229 239 246 241 234 230 241 254 272 283 286 293 296 297 298 299 301 311 316
69 112 106 25 318 167 100 56 83 78 77 76 78 84 82 65 78 78 100 98 78 58 42 25 10 357 313 250 244 239 240 236 228 215 217 233 260 265 269 284 290 293 292 292 295 302 312 316 314
50 65 66 12 10 22 104 100 86 83 78 73 76 81 84 80 93 105 81 86 142 40 348 4 40 72 111 135 151 172 194 210 222 246 273 270 277 281 280 273 295 287 282 284 297 308 320 329 321
18 60 27 23 17 79 77 106 86 85 83 70 71 77 89 92 91 73 83 108 204 265 354 352 334 334 292 289 285 290 296 301 296 293 293 288 287 291 281 299 283 286 283 280 300 319 329 334 318
94 109 55 69 32 78 84 90 87 85 84 78 73 72 77 80 68 64 151 238 308 334 337 341 340 340 344 328 312 304 309 313 324 318 311 313 312 309 295 287 285 282 273 314 319 325 330 333 320
79 90 113 134 70 77 97 99 98 96 98 93 85 80 74 77 77 80 17 332 350 346 347 352 352 358 345 357 348 337 332 338 336 330 325 320 315 319 303 286 272 272 299 300 327 321 322 323 315
105 111 93 57 91 87 102 91 81 85 90 95 82 70 73 71 77 45 11 1 5 9 12 4 355 354 6 1 352 349 335 318 334 335 337 327 324 321 318 306 292 292 304 300 292 330 318 307 306
103 134 178 136 90 88 125 98 107 97 88 83 87 83 81 80 65 44 19 15 12 4 3 9 11 6 358 359 350 342 333 326 329 335 337 336 330 323 316 304 297 299 300 284 299 300 293 291 293
60 119 130 139 120 185 172 135 175 159 129 109 96 90 125 186 242 28 17 32 21 14 8 2 356 352 354 350 342 337 331 330 335 336 337 336 330 331 327 303 298 312 297 284 282 294 296 288 290
94 144 150 156 101 116 154 106 145 164 209 202 157 165 201 216 190 354 47 5 360 354 351 347 344 347 345 339 341 341 337 335 333 331 327 322 325 330 326 325 315 304 287 273 266 275 296 287 281
113 120 90 94 135 63 190 149 193 184 194 176 182 196 203 186 154 62 356 330 323 333 331 329 335 337 331 333 337 338 339 335 331 329 324 317 320 327 322 317 314 307 298 287 274 255 259 273 280
51 51 335 352 358 251 313 63 324 177 179 188 191 193 184 184 197 333 331 319 325 334 331 335 329 332 336 333 334 333 331 331 331 330 329 324 324 330 332 326 312 315 309 290 282 275 258 268 272
58 116 141 274 238 235 354 147 228 166 171 159 176 170 183 195 210 299 321 324 329 335 342 332 340 332 330 325 328 329 326 325 324 324 327 327 323 331 342 342 332 332 332 315 291 271 259 270 265
326 30 193 114 71 93 266 253 276 159 143 143 177 175 199 203 245 282 320 317 326 333 341 339 337 335 333 330 329 329 322 326 327 329 318 307 320 320 326 335 332 320 325 346 311 281 267 274 234
82 265 9 11 313 288 247 282 275 217 217 207 217 208 230 251 251 270 292 308 332 340 335 336 330 333 332 336 332 333 328 327 330 336 333 317 313 313 320 333 336 325 323 339 340 338 245 234 217
352 12 39 110 102 198 268 269 360 13 149 189 216 227 238 241 257 267 316 343 338 336 333 330 334 332 329 329 332 334 336 339 341 345 346 338 330 325 327 325 324 327 333 15 20 18 100 132 190
68 47 107 112 285 78 148 294 342 11 67 119 85 100 217 196 138 11 7 0 346 339 339 337 337 333 332 332 334 337 337 336 335 333 336 342 338 326 319 314 296 303 322 350 351 28 96 17 340